#timestamp,LO_Frequency,Hit 
1505394015.7,286047002.0,N
1505394035.5,286047004.0,N
1505394055.4,286047005.9,N
1505394075.2,286047003.1,N
1505394095.0,286047003.2,N
1505394095.9,286047003.2,N
1505394115.8,286047007.4,P
1505394135.6,286047001.4,N
1505394155.4,286047000.1,N
1505394175.3,286047003.2,N
1505394195.1,286047003.8,N
1505394215.8,286047004.2,N
1505394235.7,286047003.9,N
1505394255.5,286047001.7,N
1505394275.3,286047005.7,N
1505394295.2,286047005.2,N
1505394315.9,286047005.2,N
1505394335.7,286047003.8,N
1505394355.6,286047004.1,N
1505394375.4,286047004.6,N
1505394395.2,286047006.6,P
1505394415.1,286047005.7,P
1505394416.0,286047005.7,P
1505394435.8,286047001.3,N
1505394455.6,286047000.7,N
1505394475.5,286047001.4,N
1505394495.3,286047002.6,N
1505394515.1,286047001.2,N
1505394535.9,286047000.9,N
1505394555.7,286047001.5,N
1505394575.5,286047002.2,N
1505394595.3,286047002.8,N
1505394615.2,286046999.8,N
1505394635.0,286046998.3,N
1505394635.9,286046998.3,N
1505394655.7,286047001.5,N
1505394675.6,286047001.4,N
1505394695.4,286047000.4,N
1505394715.2,286047003.8,N
1505394735.1,286047006.0,N
1505394736.0,286047006.0,N
1505394755.8,286047005.4,N
1505394775.6,286047003.9,N
1505394795.5,286047001.2,N
1505394815.3,286047000.3,N
1505394835.1,286046998.1,N
1505394855.9,286047001.8,N
1505394875.7,286047003.1,N
1505394895.5,286047007.2,P
1505394915.4,286047005.3,N
1505394935.2,286047005.3,N
1505394955.0,286047001.3,N
1505394955.9,286047001.3,N
1505394975.8,286047001.6,N
1505394995.6,286047002.5,N
1505395015.4,286047004.0,N
1505395035.2,286047002.5,N
1505395055.1,286047002.1,N
1505395056.0,286047002.1,N
1505395075.8,286047000.9,N
1505395095.6,286047000.2,N
1505395115.5,286047000.9,N
1505395135.3,286047001.0,N
1505395155.1,286047000.3,N
1505395175.9,286047002.2,N
1505395195.7,286047003.5,N
1505395215.5,286047005.3,N
1505395235.4,286047006.8,P
1505395255.2,286047005.7,N
1505395275.0,286047005.4,P
1505395275.9,286047005.4,P
1505395295.8,286047002.8,P
1505395315.6,286047002.3,N
1505395335.4,286047004.3,P
1505395355.3,286046998.9,P
1505395375.1,286046997.3,N
1505395395.8,286046996.6,N
1505395415.7,286046999.3,N
1505395435.5,286047000.6,N
1505395455.3,286047000.4,N
1505395475.2,286046999.1,N
1505395495.9,286047001.7,N
1505395515.7,286047003.9,N
1505395535.6,286047000.4,N
1505395555.4,286047002.4,N
1505395575.2,286047001.6,N
1505395595.1,286047001.3,N
1505395596.0,286047001.3,N
1505395615.8,286047003.8,N
1505395635.6,286047005.3,N
1505395655.4,286047003.3,N
1505395675.3,286047004.2,N
1505395695.1,286047006.0,N
1505395715.8,286047007.1,N
1505395735.7,286047006.6,N
1505395755.5,286047008.5,P
1505395775.3,286047009.0,N
1505395795.2,286047008.5,N
1505395815.9,286047012.4,P
1505395835.7,286047005.7,N
1505395855.6,286047006.8,N
1505395875.4,286047007.6,N
1505395895.2,286047010.7,P
1505395915.1,286047005.9,P
1505395916.0,286047005.9,N
1505395935.8,286047004.2,N
1505395955.6,286047003.2,N
1505395975.5,286047004.2,N
1505395995.3,286047008.9,P
1505396015.1,286047002.9,N
1505396035.9,286047006.8,N
1505396055.7,286047006.4,N
1505396075.6,286047009.6,P
1505396095.4,286047001.3,N
1505396115.2,286047003.0,N
1505396135.0,286047008.7,N
1505396135.9,286047008.7,N
1505396155.8,286047007.7,N
1505396175.6,286047009.5,P
1505396195.5,286046999.8,N
1505396215.3,286047002.8,N
1505396235.1,286046999.7,N
1505396255.8,286046997.0,N
1505396275.7,286046997.0,N
1505396295.5,286046998.8,N
1505396315.3,286046998.1,N
1505396335.2,286046998.2,N
1505396355.9,286046999.3,N
1505396375.7,286046992.3,N
1505396395.6,286046994.3,N
1505396415.4,286046997.3,N
1505396435.2,286047001.1,N
1505396455.1,286047002.3,N
1505396456.0,286047002.3,N
1505396475.8,286047002.3,N
1505396495.6,286047000.4,N
1505396515.4,286047000.5,N
1505396535.3,286046999.9,N
1505396555.1,286046998.2,N
1505396575.8,286046995.0,N
1505396595.7,286046995.1,N
1505396615.5,286046993.6,N
1505396635.3,286046997.6,N
1505396655.2,286046999.1,N
1505396675.9,286046998.1,N
1505396695.7,286046998.6,N
1505396715.6,286046995.5,N
1505396735.4,286046995.7,N
1505396755.2,286046998.0,N
1505396775.1,286046993.4,N
1505396776.0,286046993.4,N
1505396795.8,286046994.6,N
1505396815.6,286046994.5,N
1505396835.5,286046994.1,N
1505396855.3,286046997.8,N
1505396875.1,286046997.6,N
1505396895.8,286046996.9,N
1505396915.7,286046997.6,N
1505396935.5,286046997.7,N
1505396955.3,286046996.4,N
1505396975.2,286046995.9,N
1505396995.9,286046995.9,N
1505397015.7,286046994.5,N
1505397035.6,286046993.4,N
1505397055.4,286046994.6,N
1505397075.2,286046994.3,N
1505397095.1,286046993.5,P
1505397096.0,286046993.5,P
1505397115.8,286046997.4,N
1505397135.6,286046997.7,N
1505397155.5,286046996.2,N
1505397175.3,286046998.0,N
1505397195.1,286046999.6,N
1505397215.9,286046996.9,N
1505397235.7,286046998.7,N
1505397255.5,286046999.4,N
1505397275.4,286046997.6,N
1505397295.2,286046996.5,N
1505397315.0,286046998.4,N
1505397315.9,286046998.4,N
1505397335.7,286046999.0,N
1505397355.6,286047001.2,N
1505397375.4,286046997.9,N
1505397395.2,286046994.8,N
1505397415.1,286046995.9,N
1505397416.0,286046995.9,N
1505397435.8,286046999.1,N
1505397455.7,286046992.4,P
1505397475.5,286046994.1,N
1505397495.3,286046997.2,N
1505397515.1,286046996.8,N
1505397535.9,286046992.4,P
1505397555.7,286046995.7,N
1505397575.5,286046996.9,N
1505397595.4,286046996.4,N
